This is the latest recevied weather packets stored in our database for station/object DO6MJ-1. If no packets are shown the sender has not sent any weather packets the latest 10 day(s).
| Time | Temp. | Humidity | Pressure | Rain* | Wind** | Luminosity | Snow |
|---|---|---|---|---|---|---|---|
| 1777873361 | 16.67° C | 76% | 1004.7 hPa | 0 mm | - | - | - |
| 1777872161 | 16.11° C | 77% | 1004.9 hPa | 0 mm | - | - | - |
| 1777870960 | 16.11° C | 76% | 1004.7 hPa | 0 mm | - | - | - |
| 1777869760 | 16.11° C | 75% | 1004.4 hPa | 0 mm | - | - | - |
| 1777868560 | 16.11° C | 74% | 1004.2 hPa | 0 mm | - | - | - |
| 1777867360 | 16.11° C | 72% | 1004.3 hPa | 0 mm | - | - | - |
| 1777866159 | 16.11° C | 72% | 1004.1 hPa | 0 mm | - | - | - |
| 1777864959 | 16.67° C | 72% | 1004.2 hPa | 0 mm | - | - | - |
| 1777863759 | 16.67° C | 71% | 1004.3 hPa | 0 mm | - | - | - |
| 1777862558 | 16.67° C | 71% | 1004 hPa | 0 mm | - | - | - |
| 1777861358 | 16.67° C | 71% | 1003.9 hPa | 0 mm | - | - | - |
| 1777860158 | 16.11° C | 72% | 1003.9 hPa | 0 mm | - | - | - |
| 1777858958 | 16.11° C | 71% | 1003.8 hPa | 0 mm | - | - | - |
| 1777857757 | 16.11° C | 71% | 1003.9 hPa | 0 mm | - | - | - |
| 1777856557 | 16.11° C | 70% | 1003.8 hPa | 0 mm | - | - | - |
| 1777855357 | 15.56° C | 70% | 1003.9 hPa | 0 mm | - | - | - |
| 1777854156 | 15.56° C | 69% | 1003.8 hPa | 0 mm | - | - | - |
| 1777852956 | 16.11° C | 67% | 1003.7 hPa | 0 mm | - | - | - |
| 1777851756 | 16.67° C | 65% | 1003.7 hPa | 0 mm | - | - | - |
| 1777850556 | 17.22° C | 65% | 1003.8 hPa | 0 mm | - | - | - |
| 1777849355 | 17.22° C | 64% | 1003.8 hPa | 0 mm | - | - | - |
| 1777848155 | 17.78° C | 63% | 1004 hPa | 0 mm | - | - | - |
| 1777846955 | 17.78° C | 62% | 1003.8 hPa | 0 mm | - | - | - |
| 1777845754 | 18.33° C | 61% | 1003.8 hPa | 0 mm | - | - | - |
| 1777844554 | 18.33° C | 59% | 1003.8 hPa | 0 mm | - | - | - |
* Rain latest hour (hover to see other rain measurements)
** Current wind speed in m/s (hover to see current wind gust speed)